Location: Barcelona
(41.3830°N, 2.1830°E)
Time: 12:08:39
(UTC+01:00)

ISS - Pass Details

Date: 15 March 2019
Orbit: 408 x 411 km, 51.6° (Epoch: 24 March)

Event Time Altitude Azimuth Distance (km) Brightness Sun altitude
Exits shadow 05:36:02 38° 309° (NW) 637 -3.2 -17.2°
Maximum altitude 05:37:10 86° 37° (NE) 413 -3.9 -17.0°
Drops below altitude 10° 05:40:27 10° 125° (SE) 1,466 -0.4 -16.4°
Sets 05:42:32 0° 126° (SE) 2,324 0.7 -16.0°
